Project,Study,Ord_Occ,Event_Num,Cast_ID,Date_Time_UTC,Date_Time_PST,Lat_Dec,Lon_Dec,Sta_ID,Line,Sta,Depth,Pressure,PrQ,Temp1,Temp1Q,Temp2,Temp2Q,TempAve,Salt1,Salt1Q,Salt1_Corr,Salt2,Salt2Q,Salt2_Corr,SaltAve_Corr,Ox1,Ox1Q,Ox1_CruiseCorr,Ox1_StaCorr,Ox2,Ox2Q,Ox2_CruiseCorr,Ox2_StaCorr,OxAve_StaCorr,Ox1uM,Ox1uM_CruiseCorr,Ox1uM_StaCorr,Ox2uM,Ox2uM_CruiseCorr,Ox2uM_StaCorr,OxAveuM_StaCorr,FluorV,FluorQ,EstChl_CruiseCorr,EstChl_StaCorr,ISUSV,ISUSQ,EstNO3_CruiseCorr,EstNO3_StaCorr,SigThetaTS1,SigThetaTS1Q,SigThetaTS2,SigThetaTS2Q,BAT,XMiss,TransQ,pH,pHQ,SPAR,SPARQ,PAR,PARQ,PoT1,PoT2,DynHt,SVA,OxSat1,OxSat2,BTL_Depth,BTL_Temp,SaltB,OxB,OxBuM,Chl-a,Phaeo,NO3,NO2,NH4,PO4,SIL
CalCOFI,2105SH,003,,2105_003u,04-May-2021 23:27:33,04-May-2021 15:27:33,32.84808,-117.53090,093.3 030.0,093.3,030.0,517.000,521.320,,6.7403,,6.7397,,6.7400,34.3337,,34.3349,34.3355,,34.3374,34.3362,0.2753,,0.3540,0.3645,0.2832,,0.3527,0.3709,0.3677,11.971,15.0133,25.2696,12.316,18.0572,23.1967,24.2332,0.0403,,,,0.5899,,0.0000,,26.9358,,26.9374,,,,,,,,,,,6.6919,6.6913,0.8582,119.060,4.035,4.152,,,,,,,,,,,,
CalCOFI,2105SH,003,,2105_003u,04-May-2021 23:27:37,04-May-2021 15:27:37,32.84808,-117.53090,093.3 030.0,093.3,030.0,516.000,520.311,,6.7664,,6.7620,,6.7642,34.3321,,34.3333,34.3337,,34.3356,34.3345,0.2786,,0.3575,0.3679,0.2830,,0.3525,0.3707,0.3693,12.116,15.1649,25.3846,12.308,18.2138,23.1902,24.2874,0.0399,,,,0.5899,,0.0000,,26.9311,,26.9329,,,,,,,,,,,6.7180,6.7136,0.8582,119.522,4.087,4.151,516,6.766,34.3298,0.377,16.40,,,39.22,0.00,0.00,3.16,67.74
CalCOFI,2105SH,003,,2105_003u,04-May-2021 23:27:40,04-May-2021 15:27:40,32.84808,-117.53090,093.3 030.0,093.3,030.0,515.000,519.301,,6.7704,,6.7676,,6.7690,34.3316,,34.3328,34.3332,,34.3351,34.3340,0.2806,,0.3596,0.3700,0.2851,,0.3547,0.3729,0.3715,12.205,15.2579,25.4551,12.397,18.3099,23.2624,24.3588,0.0401,,,,0.5899,,0.0000,,26.9302,,26.9318,,,,,,,,,,,6.7220,6.7193,0.8582,119.596,4.117,4.182,,,,,,,,,,,,
CalCOFI,2105SH,003,,2105_003u,04-May-2021 23:27:41,04-May-2021 15:27:41,32.84808,-117.53090,093.3 030.0,093.3,030.0,514.000,518.291,,6.7706,,6.7698,,6.7702,34.3318,,34.3330,34.3329,,34.3348,34.3339,0.2837,,0.3628,0.3732,0.2884,,0.3581,0.3763,0.3748,12.337,15.3959,25.5598,12.543,18.4525,23.3808,24.4703,0.0398,,,,0.5900,,0.0000,,26.9302,,26.9313,,,,,,,,,,,6.7224,6.7215,0.8582,119.577,4.162,4.231,,,,,,,,,,,,
CalCOFI,2105SH,003,,2105_003u,04-May-2021 23:27:42,04-May-2021 15:27:42,32.84808,-117.53090,093.3 030.0,093.3,030.0,513.000,517.282,,6.7746,,6.7712,,6.7729,34.3309,,34.3321,34.3328,,34.3347,34.3334,0.2811,,0.3601,0.3705,0.2887,,0.3584,0.3766,0.3736,12.223,15.2767,25.4694,12.555,18.3294,23.3905,24.4300,0.0398,,,,0.5900,,0.0000,,26.9290,,26.9309,,,,,,,,,,,6.7264,6.7230,0.8582,119.681,4.123,4.235,,,,,,,,,,,,
CalCOFI,2105SH,003,,2105_003u,04-May-2021 23:27:43,04-May-2021 15:27:43,32.84808,-117.53090,093.3 030.0,093.3,030.0,512.000,516.272,,6.7742,,6.7718,,6.7730,34.3316,,34.3328,34.3330,,34.3349,34.3339,0.2810,,0.3600,0.3704,0.2882,,0.3579,0.3761,0.3733,12.221,15.2746,25.4678,12.533,18.3272,23.3727,24.4203,0.0415,,,,0.5901,,0.0000,,26.9296,,26.9310,,,,,,,,,,,6.7261,6.7238,0.8582,119.606,4.123,4.228,,,,,,,,,,,,
CalCOFI,2105SH,003,,2105_003u,04-May-2021 23:27:44,04-May-2021 15:27:44,32.84810,-117.53090,093.3 030.0,093.3,030.0,511.000,515.263,,6.7716,,6.7722,,6.7719,34.3315,,34.3327,34.3325,,34.3344,34.3336,0.2810,,0.3600,0.3704,0.2877,,0.3574,0.3755,0.3730,12.221,15.2746,25.4678,12.513,18.3272,23.3565,24.4122,0.0401,,,,0.5902,,0.0000,,26.9298,,26.9306,,,,,,,,,,,6.7237,6.7242,0.8582,119.563,4.122,4.221,,,,,,,,,,,,
CalCOFI,2105SH,003,,2105_003u,04-May-2021 23:27:45,04-May-2021 15:27:45,32.84810,-117.53090,093.3 030.0,093.3,030.0,510.000,514.253,,6.7714,,6.7721,,6.7718,34.3314,,34.3326,34.3326,,34.3345,34.3336,0.2810,,0.3600,0.3704,0.2869,,0.3566,0.3747,0.3726,12.219,15.2725,25.4662,12.476,18.3251,23.3264,24.3963,0.0400,,,,0.5902,,0.0000,,26.9297,,26.9306,,,,,,,,,,,6.7235,6.7242,0.8582,119.557,4.122,4.209,,,,,,,,,,,,
CalCOFI,2105SH,003,,2105_003u,04-May-2021 23:27:46,04-May-2021 15:27:46,32.84810,-117.53090,093.3 030.0,093.3,030.0,509.000,513.243,,6.7720,,6.7725,,6.7723,34.3313,,34.3325,34.3324,,34.3343,34.3334,0.2809,,0.3599,0.3703,0.2868,,0.3565,0.3746,0.3725,12.217,15.2705,25.4647,12.475,18.3229,23.3256,24.3952,0.0403,,,,0.5903,,0.0000,,26.9296,,26.9304,,,,,,,,,,,6.7243,6.7247,0.8582,119.556,4.121,4.208,,,,,,,,,,,,
CalCOFI,2105SH,003,,2105_003u,04-May-2021 23:27:47,04-May-2021 15:27:47,32.84810,-117.53090,093.3 030.0,093.3,030.0,508.000,512.234,,6.7749,,6.7720,,6.7735,34.3305,,34.3317,34.3325,,34.3344,34.3331,0.2809,,0.3599,0.3703,0.2868,,0.3565,0.3746,0.3725,12.215,15.2684,25.4631,12.473,18.3207,23.3240,24.3936,0.0396,,,,0.5904,,0.0000,,26.9286,,26.9305,,,,,,,,,,,6.7272,6.7243,0.8582,119.638,4.121,4.208,,,,,,,,,,,,
CalCOFI,2105SH,003,,2105_003u,04-May-2021 23:27:48,04-May-2021 15:27:48,32.84810,-117.53090,093.3 030.0,093.3,030.0,507.000,511.224,,6.7754,,6.7717,,6.7736,34.3304,,34.3316,34.3326,,34.3345,34.3331,0.2808,,0.3598,0.3702,0.2868,,0.3565,0.3746,0.3724,12.213,15.2663,25.4615,12.472,18.3186,23.3232,24.3924,0.0399,,,,0.5905,,0.0000,,26.9284,,26.9306,,,,,,,,,,,6.7278,6.7241,0.8582,119.644,4.120,4.207,,,,,,,,,,,,
CalCOFI,2105SH,003,,2105_003u,04-May-2021 23:27:49,04-May-2021 15:27:49,32.84810,-117.53090,093.3 030.0,093.3,030.0,506.000,510.215,,6.7786,,6.7725,,6.7756,34.3297,,34.3309,34.3322,,34.3341,34.3325,0.2808,,0.3598,0.3702,0.2867,,0.3564,0.3745,0.3724,12.211,15.2642,25.4599,12.470,18.3164,23.3216,24.3908,0.0401,,,,0.5906,,0.0000,,26.9274,,26.9302,,,,,,,,,,,6.7311,6.7250,0.8582,119.721,4.120,4.207,,,,,,,,,,,,
CalCOFI,2105SH,003,,2105_003u,04-May-2021 23:27:49,04-May-2021 15:27:49,32.84810,-117.53090,093.3 030.0,093.3,030.0,505.000,509.205,,6.7799,,6.7738,,6.7769,34.3300,,34.3312,34.3317,,34.3336,34.3324,0.2807,,0.3597,0.3701,0.2867,,0.3564,0.3745,0.3723,12.208,15.2610,25.4575,12.468,18.3132,23.3200,24.3888,0.0395,,,,0.5906,,0.0000,,26.9274,,26.9296,,,,,,,,,,,6.7325,6.7264,0.8582,119.706,4.119,4.206,,,,,,,,,,,,
CalCOFI,2105SH,003,,2105_003u,04-May-2021 23:27:50,04-May-2021 15:27:50,32.84810,-117.53088,093.3 030.0,093.3,030.0,504.000,508.196,,6.7769,,6.7775,,6.7772,34.3306,,34.3318,34.3332,,34.3351,34.3335,0.2807,,0.3597,0.3701,0.2866,,0.3563,0.3744,0.3723,12.209,15.2621,25.4583,12.465,18.3143,23.3175,24.3879,0.0391,,,,0.5907,,0.0000,,26.9283,,26.9302,,,,,,,,,,,6.7296,6.7302,0.8582,119.604,4.119,4.205,,,,,,,,,,,,
CalCOFI,2105SH,003,,2105_003u,04-May-2021 23:27:51,04-May-2021 15:27:51,32.84810,-117.53088,093.3 030.0,093.3,030.0,503.000,507.186,,6.7965,,6.8026,,6.7996,34.3277,,34.3289,34.3317,,34.3336,34.3313,0.2824,,0.3614,0.3719,0.2864,,0.3561,0.3742,0.3731,12.284,15.3405,25.5178,12.455,18.3953,23.3094,24.4136,0.0403,,,,0.5908,,0.0000,,26.9234,,26.9257,,,,,,,,,,,6.7493,6.7553,0.8582,120.075,4.146,4.205,,,,,,,,,,,,
CalCOFI,2105SH,003,,2105_003u,04-May-2021 23:27:52,04-May-2021 15:27:52,32.84810,-117.53088,093.3 030.0,093.3,030.0,502.000,506.176,,6.8406,,6.8381,,6.8394,34.3257,,34.3269,34.3344,,34.3363,34.3316,0.2821,,0.3611,0.3716,0.2861,,0.3557,0.3739,0.3728,12.268,15.3238,25.5051,12.443,18.3780,23.2997,24.4024,0.0399,,,,0.5909,,0.0000,,26.9158,,26.9230,,,,,,,,,,,6.7932,6.7908,0.8582,120.823,4.145,4.204,,,,,,,,,,,,
CalCOFI,2105SH,003,,2105_003u,04-May-2021 23:27:53,04-May-2021 15:27:53,32.84810,-117.53088,093.3 030.0,093.3,030.0,501.000,505.167,,6.8549,,6.8410,,6.8480,34.3318,,34.3330,34.3326,,34.3345,34.3338,0.2845,,0.3636,0.3740,0.2874,,0.3571,0.3752,0.3746,12.372,15.4325,25.5875,12.500,18.4903,23.3459,24.4667,0.0400,,,,0.5910,,0.0000,,26.9187,,26.9212,,,,,,,,,,,6.8076,6.7938,0.8582,120.550,4.181,4.223,,,,,,,,,,,,
CalCOFI,2105SH,003,,2105_003u,04-May-2021 23:27:54,04-May-2021 15:27:54,32.84810,-117.53088,093.3 030.0,093.3,030.0,500.000,504.157,,6.8465,,6.8385,,6.8425,34.3317,,34.3329,34.3322,,34.3341,34.3335,0.2801,,0.3590,0.3695,0.2882,,0.3579,0.3761,0.3728,12.181,15.2328,25.4361,12.535,18.2840,23.3743,24.4052,0.0399,,,,0.5911,,0.0000,,26.9198,,26.9213,,,,,,,,,,,6.7993,6.7913,0.8582,120.426,4.116,4.235,,,,,,,,,,,,
CalCOFI,2105SH,003,,2105_003u,04-May-2021 23:27:54,04-May-2021 15:27:54,32.84810,-117.53088,093.3 030.0,093.3,030.0,499.000,503.148,,6.8423,,6.8542,,6.8483,34.3306,,34.3318,34.3331,,34.3350,34.3334,0.2840,,0.3631,0.3735,0.2879,,0.3576,0.3758,0.3747,12.350,15.4095,25.5701,12.519,18.4665,23.3613,24.4657,0.0403,,,,0.5912,,0.0000,,26.9194,,26.9198,,,,,,,,,,,6.7953,6.8071,0.8582,120.438,4.173,4.231,,,,,,,,,,,,
CalCOFI,2105SH,003,,2105_003u,04-May-2021 23:27:55,04-May-2021 15:27:55,32.84810,-117.53088,093.3 030.0,093.3,030.0,498.000,502.138,,6.8665,,6.8673,,6.8669,34.3299,,34.3311,34.3332,,34.3351,34.3331,0.2886,,0.3679,0.3783,0.2962,,0.3662,0.3843,0.3813,12.549,15.6175,25.7279,12.882,18.6815,23.6558,24.6919,0.0403,,,,0.5912,,0.0000,,26.9156,,26.9181,,,,,,,,,,,6.8194,6.8202,0.8582,120.814,4.243,4.355,,,,,,,,,,,,
CalCOFI,2105SH,003,,2105_003u,04-May-2021 23:27:56,04-May-2021 15:27:56,32.84812,-117.53088,093.3 030.0,093.3,030.0,497.000,501.129,,6.8727,,6.8816,,6.8772,34.3303,,34.3315,34.3355,,34.3374,34.3345,0.2851,,0.3643,0.3747,0.2950,,0.3650,0.3830,0.3789,12.399,15.4607,25.6090,12.829,18.5195,23.6128,24.6109,0.0403,,,,0.5913,,0.0000,,26.9150,,26.9179,,,,,,,,,,,6.8257,6.8346,0.8582,120.855,4.192,4.339,,,,,,,,,,,,
CalCOFI,2105SH,003,,2105_003u,04-May-2021 23:27:57,04-May-2021 15:27:57,32.84811,-117.53088,093.3 030.0,093.3,030.0,496.000,500.119,,6.9063,,6.8910,,6.8987,34.3297,,34.3309,34.3381,,34.3400,34.3355,0.2842,,0.3633,0.3737,0.2903,,0.3601,0.3782,0.3760,12.359,15.4189,25.5772,12.626,18.4763,23.4481,24.5127,0.0407,,,,0.5914,,0.0000,,26.9100,,26.9187,,,,,,,,,,,6.8593,6.8440,0.8582,121.349,4.182,4.271,,,,,,,,,,,,
CalCOFI,2105SH,003,,2105_003u,04-May-2021 23:27:57,04-May-2021 15:27:57,32.84810,-117.53088,093.3 030.0,093.3,030.0,495.000,499.110,,6.8988,,6.9096,,6.9042,34.3336,,34.3348,34.3372,,34.3391,34.3370,0.2840,,0.3631,0.3735,0.2898,,0.3596,0.3777,0.3756,12.352,15.4116,25.5717,12.604,18.4687,23.4303,24.5010,0.0400,,,,0.5914,,0.0000,,26.9141,,26.9155,,,,,,,,,,,6.8519,6.8627,0.8582,120.946,4.179,4.265,,,,,,,,,,,,
CalCOFI,2105SH,003,,2105_003u,04-May-2021 23:27:58,04-May-2021 15:27:58,32.84810,-117.53088,093.3 030.0,093.3,030.0,494.000,498.100,,6.9019,,6.9168,,6.9094,34.3315,,34.3327,34.3360,,34.3379,34.3353,0.2839,,0.3630,0.3734,0.2897,,0.3595,0.3776,0.3755,12.345,15.4043,25.5661,12.600,18.4611,23.4270,24.4966,0.0407,,,,0.5915,,0.0000,,26.9120,,26.9135,,,,,,,,,,,6.8551,6.8700,0.8582,121.127,4.177,4.265,,,,,,,,,,,,
CalCOFI,2105SH,003,,2105_003u,04-May-2021 23:27:59,04-May-2021 15:27:59,32.84810,-117.53088,093.3 030.0,093.3,030.0,493.000,497.091,,6.9237,,6.9204,,6.9221,34.3326,,34.3338,34.3355,,34.3374,34.3356,0.2836,,0.3627,0.3731,0.2897,,0.3595,0.3776,0.3754,12.336,15.3949,25.5590,12.597,18.4514,23.4246,24.4918,0.0399,,,,0.5916,,0.0000,,26.9099,,26.9127,,,,,,,,,,,6.8769,6.8736,0.8582,121.333,4.176,4.264,,,,,,,,,,,,
CalCOFI,2105SH,003,,2105_003u,04-May-2021 23:28:00,04-May-2021 15:28:00,32.84812,-117.53088,093.3 030.0,093.3,030.0,492.000,496.081,,6.9256,,6.9250,,6.9253,34.3338,,34.3350,34.3358,,34.3377,34.3364,0.2836,,0.3627,0.3731,0.2896,,0.3594,0.3775,0.3753,12.334,15.3928,25.5574,12.594,18.4493,23.4222,24.4898,0.0397,,,,0.5917,,0.0000,,26.9106,,26.9122,,,,,,,,,,,6.8789,6.8784,0.8582,121.256,4.175,4.263,,,,,,,,,,,,
CalCOFI,2105SH,003,,2105_003u,04-May-2021 23:28:01,04-May-2021 15:28:01,32.84810,-117.53088,093.3 030.0,093.3,030.0,491.000,495.072,,6.9266,,6.9259,,6.9263,34.3341,,34.3353,34.3358,,34.3377,34.3365,0.2836,,0.3627,0.3731,0.2895,,0.3593,0.3774,0.3753,12.332,15.3907,25.5558,12.592,18.4471,23.4205,24.4882,0.0403,,,,0.5918,,0.0000,,26.9107,,26.9121,,,,,,,,,,,6.8800,6.8793,0.8582,121.231,4.175,4.263,,,,,,,,,,,,
CalCOFI,2105SH,003,,2105_003u,04-May-2021 23:28:02,04-May-2021 15:28:02,32.84810,-117.53088,093.3 030.0,093.3,030.0,490.000,494.062,,6.9268,,6.9256,,6.9262,34.3340,,34.3352,34.3357,,34.3376,34.3364,0.2835,,0.3626,0.3730,0.2895,,0.3593,0.3774,0.3752,12.330,15.3886,25.5542,12.590,18.4449,23.4189,24.4866,0.0404,,,,0.5919,,0.0000,,26.9105,,26.9121,,,,,,,,,,,6.8803,6.8791,0.8582,121.229,4.174,4.262,,,,,,,,,,,,
CalCOFI,2105SH,003,,2105_003u,04-May-2021 23:28:03,04-May-2021 15:28:03,32.84810,-117.53088,093.3 030.0,093.3,030.0,489.000,493.053,,6.9277,,6.9262,,6.9270,34.3337,,34.3349,34.3357,,34.3376,34.3363,0.2835,,0.3626,0.3730,0.2895,,0.3593,0.3774,0.3752,12.329,15.3875,25.5535,12.589,18.4439,23.4181,24.4858,0.0395,,,,0.5920,,0.0000,,26.9102,,26.9120,,,,,,,,,,,6.8813,6.8798,0.8582,121.245,4.174,4.262,,,,,,,,,,,,
CalCOFI,2105SH,003,,2105_003u,04-May-2021 23:28:04,04-May-2021 15:28:04,32.84810,-117.53088,093.3 030.0,093.3,030.0,488.000,492.043,,6.9269,,6.9259,,6.9264,34.3342,,34.3354,34.3352,,34.3371,34.3363,0.2834,,0.3625,0.3729,0.2894,,0.3592,0.3773,0.3751,12.327,15.3854,25.5519,12.587,18.4417,23.4165,24.4842,0.0398,,,,0.5921,,0.0000,,26.9106,,26.9116,,,,,,,,,,,6.8806,6.8796,0.8582,121.188,4.173,4.261,,,,,,,,,,,,
CalCOFI,2105SH,003,,2105_003u,04-May-2021 23:28:05,04-May-2021 15:28:05,32.84810,-117.53088,093.3 030.0,093.3,030.0,487.000,491.034,,6.9286,,6.9260,,6.9273,34.3331,,34.3343,34.3353,,34.3372,34.3358,0.2834,,0.3625,0.3729,0.2894,,0.3592,0.3773,0.3751,12.325,15.3834,25.5503,12.585,18.4395,23.4149,24.4826,0.0401,,,,0.5923,,0.0000,,26.9096,,26.9116,,,,,,,,,,,6.8824,6.8798,0.8582,121.274,4.173,4.261,,,,,,,,,,,,
CalCOFI,2105SH,003,,2105_003u,04-May-2021 23:28:06,04-May-2021 15:28:06,32.84812,-117.53088,093.3 030.0,093.3,030.0,486.000,490.024,,6.9265,,6.9283,,6.9274,34.3337,,34.3349,34.3350,,34.3369,34.3359,0.2864,,0.3656,0.3760,0.2926,,0.3625,0.3806,0.3783,12.457,15.5213,25.6549,12.725,18.5821,23.5284,24.5917,0.0404,,,,0.5924,,0.0000,,26.9103,,26.9110,,,,,,,,,,,6.8804,6.8822,0.8582,121.187,4.217,4.308,,,,,,,,,,,,
CalCOFI,2105SH,003,,2105_003u,04-May-2021 23:28:07,04-May-2021 15:28:07,32.84812,-117.53088,093.3 030.0,093.3,030.0,485.000,489.015,,6.9308,,6.9292,,6.9300,34.3322,,34.3334,34.3348,,34.3367,34.3351,0.2929,,0.3724,0.3828,0.2999,,0.3700,0.3881,0.3855,12.739,15.8162,25.8785,13.044,18.8867,23.7872,24.8329,0.0398,,,,0.5926,,0.0000,,26.9085,,26.9107,,,,,,,,,,,6.8848,6.8832,0.8582,121.345,4.313,4.416,,,,,,,,,,,,
CalCOFI,2105SH,003,,2105_003u,04-May-2021 23:28:08,04-May-2021 15:28:08,32.84812,-117.53088,093.3 030.0,093.3,030.0,484.000,488.005,,6.9341,,6.9311,,6.9326,34.3318,,34.3330,34.3352,,34.3371,34.3351,0.2896,,0.3690,0.3793,0.2961,,0.3661,0.3842,0.3818,12.595,15.6656,25.7643,12.876,18.7311,23.6509,24.7076,0.0399,,,,0.5927,,0.0000,,26.9077,,26.9108,,,,,,,,,,,6.8882,6.8852,0.8582,121.404,4.265,4.360,,,,,,,,,,,,
CalCOFI,2105SH,003,,2105_003u,04-May-2021 23:28:09,04-May-2021 15:28:09,32.84812,-117.53088,093.3 030.0,093.3,030.0,483.000,486.996,,6.9369,,6.9361,,6.9365,34.3311,,34.3323,34.3337,,34.3356,34.3340,0.2876,,0.3669,0.3773,0.2940,,0.3639,0.3820,0.3797,12.506,15.5726,25.6938,12.786,18.6350,23.5779,24.6359,0.0397,,,,0.5929,,0.0000,,26.9068,,26.9089,,,,,,,,,,,6.8911,6.8903,0.8582,121.478,4.235,4.329,,,,,,,,,,,,
CalCOFI,2105SH,003,,2105_003u,04-May-2021 23:28:09,04-May-2021 15:28:09,32.84812,-117.53088,093.3 030.0,093.3,030.0,482.000,485.986,,6.9326,,6.9352,,6.9339,34.3333,,34.3345,34.3337,,34.3356,34.3351,0.2896,,0.3690,0.3793,0.3006,,0.3708,0.3888,0.3841,12.596,15.6667,25.7651,13.074,18.7322,23.8115,24.7883,0.0398,,,,0.5931,,0.0000,,26.9091,,26.9091,,,,,,,,,,,6.8868,6.8895,0.8582,121.243,4.265,4.427,,,,,,,,,,,,
CalCOFI,2105SH,003,,2105_003u,04-May-2021 23:28:10,04-May-2021 15:28:10,32.84812,-117.53086,093.3 030.0,093.3,030.0,481.000,484.977,,6.9396,,6.9344,,6.9370,34.3313,,34.3325,34.3346,,34.3365,34.3345,0.2963,,0.3760,0.3863,0.3047,,0.3750,0.3930,0.3897,12.888,15.9719,25.9966,13.251,19.0476,23.9551,24.9759,0.0391,,,,0.5932,,0.0000,,26.9065,,26.9098,,,,,,,,,,,6.8939,6.8887,0.8582,121.475,4.364,4.487,,,,,,,,,,,,
CalCOFI,2105SH,003,,2105_003u,04-May-2021 23:28:11,04-May-2021 15:28:11,32.84812,-117.53087,093.3 030.0,093.3,030.0,480.000,483.968,,6.9572,,6.9732,,6.9652,34.3311,,34.3323,34.3328,,34.3347,34.3335,0.2971,,0.3768,0.3871,0.3010,,0.3712,0.3892,0.3882,12.922,16.0075,26.0236,13.092,19.0843,23.8261,24.9249,0.0398,,,,0.5935,,0.0000,,26.9040,,26.9032,,,,,,,,,,,6.9115,6.9276,0.8582,121.722,4.378,4.437,,,,,,,,,,,,
CalCOFI,2105SH,003,,2105_003u,04-May-2021 23:28:12,04-May-2021 15:28:12,32.84812,-117.53088,093.3 030.0,093.3,030.0,479.000,482.958,,6.9495,,6.9614,,6.9555,34.3319,,34.3331,34.3320,,34.3339,34.3335,0.2957,,0.3753,0.3857,0.3079,,0.3783,0.3963,0.3910,12.859,15.9416,25.9736,13.391,19.0163,24.0686,25.0211,0.0403,,,,0.5937,,0.0000,,26.9057,,26.9041,,,,,,,,,,,6.9040,6.9158,0.8582,121.535,4.356,4.537,,,,,,,,,,,,
CalCOFI,2105SH,003,,2105_003u,04-May-2021 23:28:12,04-May-2021 15:28:12,32.84812,-117.53088,093.3 030.0,093.3,030.0,478.000,481.949,,6.9836,,6.9754,,6.9795,34.3293,,34.3305,34.3338,,34.3357,34.3331,0.3009,,0.3808,0.3910,0.3054,,0.3757,0.3937,0.3924,13.086,16.1789,26.1536,13.281,19.2614,23.9794,25.0665,0.0400,,,,0.5940,,0.0000,,26.8990,,26.9036,,,,,,,,,,,6.9381,6.9299,0.8582,122.190,4.436,4.501,,,,,,,,,,,,
CalCOFI,2105SH,003,,2105_003u,04-May-2021 23:28:13,04-May-2021 15:28:13,32.84812,-117.53086,093.3 030.0,093.3,030.0,477.000,480.939,,7.0041,,6.9916,,6.9979,34.3313,,34.3325,34.3333,,34.3352,34.3339,0.2998,,0.3796,0.3899,0.3047,,0.3750,0.3930,0.3915,13.037,16.1277,26.1148,13.250,19.2085,23.9543,25.0346,0.0400,,,,0.5943,,0.0000,,26.8976,,26.9010,,,,,,,,,,,6.9586,6.9461,0.8582,122.321,4.421,4.492,,,,,,,,,,,,
CalCOFI,2105SH,003,,2105_003u,04-May-2021 23:28:15,04-May-2021 15:28:15,32.84812,-117.53086,093.3 030.0,093.3,030.0,476.000,479.930,,7.0349,,7.0233,,7.0291,34.3303,,34.3315,34.3342,,34.3361,34.3338,0.3068,,0.3870,0.3972,0.3096,,0.3801,0.3980,0.3976,13.344,16.4486,26.3582,13.464,19.5401,24.1278,25.2430,0.0401,,,,0.5948,,0.0000,,26.8926,,26.8973,,,,,,,,,,,6.9894,6.9778,0.8582,122.811,4.529,4.568,,,,,,,,,,,,
CalCOFI,2105SH,003,,2105_003u,04-May-2021 23:28:16,04-May-2021 15:28:16,32.84812,-117.53086,093.3 030.0,093.3,030.0,475.000,478.920,,7.0369,,7.0364,,7.0367,34.3313,,34.3325,34.3328,,34.3347,34.3336,0.3104,,0.3907,0.4009,0.3088,,0.3793,0.3972,0.3991,13.500,16.6117,26.4818,13.429,19.7085,24.0995,25.2907,0.0398,,,,0.5956,,0.0000,,26.8931,,26.8944,,,,,,,,,,,6.9915,6.9910,0.8582,122.747,4.582,4.558,,,,,,,,,,,,
CalCOFI,2105SH,003,,2105_003u,04-May-2021 23:28:18,04-May-2021 15:28:18,32.84812,-117.53086,093.3 030.0,093.3,030.0,474.000,477.911,,7.0238,,7.0235,,7.0237,34.3312,,34.3324,34.3330,,34.3349,34.3337,0.3150,,0.3955,0.4057,0.3154,,0.3861,0.4039,0.4048,13.700,16.8208,26.6404,13.716,19.9245,24.3322,25.4863,0.0401,,,,0.5962,,0.0000,,26.8948,,26.8963,,,,,,,,,,,6.9785,6.9782,0.8582,122.557,4.648,4.654,,,,,,,,,,,,
CalCOFI,2105SH,003,,2105_003u,04-May-2021 23:28:19,04-May-2021 15:28:19,32.84812,-117.53086,093.3 030.0,093.3,030.0,473.000,476.902,,7.0297,,7.0216,,7.0257,34.3289,,34.3301,34.3326,,34.3345,34.3323,0.3099,,0.3902,0.4004,0.3158,,0.3865,0.4044,0.4024,13.477,16.5877,26.4636,13.734,19.6837,24.3468,25.4052,0.0399,,,,0.5967,,0.0000,,26.8922,,26.8963,,,,,,,,,,,6.9845,6.9765,0.8582,122.794,4.573,4.660,,,,,,,,,,,,
CalCOFI,2105SH,003,,2105_003u,04-May-2021 23:28:19,04-May-2021 15:28:19,32.84812,-117.53086,093.3 030.0,093.3,030.0,472.000,475.892,,7.0300,,7.0265,,7.0283,34.3284,,34.3296,34.3312,,34.3331,34.3314,0.3136,,0.3941,0.4042,0.3215,,0.3924,0.4102,0.4072,13.639,16.7570,26.5920,13.983,19.8587,24.5488,25.5704,0.0408,,,,0.5971,,0.0000,,26.8918,,26.8945,,,,,,,,,,,6.9849,6.9814,0.8582,122.817,4.628,4.745,,,,,,,,,,,,
CalCOFI,2105SH,003,,2105_003u,04-May-2021 23:28:20,04-May-2021 15:28:20,32.84812,-117.53086,093.3 030.0,093.3,030.0,471.000,474.883,,7.0327,,7.0309,,7.0318,34.3282,,34.3294,34.3307,,34.3326,34.3310,0.3185,,0.3992,0.4093,0.3233,,0.3943,0.4120,0.4107,13.852,16.9797,26.7609,14.059,20.0887,24.6105,25.6857,0.0405,,,,0.5976,,0.0000,,26.8913,,26.8935,,,,,,,,,,,6.9877,6.9859,0.8582,122.856,4.701,4.771,,,,,,,,,,,,
CalCOFI,2105SH,003,,2105_003u,04-May-2021 23:28:21,04-May-2021 15:28:21,32.84812,-117.53086,093.3 030.0,093.3,030.0,470.000,473.873,,7.0376,,7.0393,,7.0385,34.3270,,34.3282,34.3283,,34.3302,34.3292,0.3162,,0.3968,0.4069,0.3244,,0.3954,0.4132,0.4101,13.752,16.8751,26.6816,14.108,19.9807,24.6502,25.6659,0.0401,,,,0.5981,,0.0000,,26.8896,,26.8904,,,,,,,,,,,6.9927,6.9943,0.8582,122.998,4.667,4.788,,,,,,,,,,,,
CalCOFI,2105SH,003,,2105_003u,04-May-2021 23:28:22,04-May-2021 15:28:22,32.84812,-117.53085,093.3 030.0,093.3,030.0,469.000,472.864,,7.0441,,7.0428,,7.0435,34.3255,,34.3267,34.3275,,34.3294,34.3281,0.3221,,0.4030,0.4130,0.3266,,0.3977,0.4154,0.4142,14.010,17.1449,26.8862,14.206,20.2593,24.7297,25.8080,0.0404,,,,0.5986,,0.0000,,26.8875,,26.8893,,,,,,,,,,,6.9993,6.9979,0.8582,123.186,4.756,4.822,,,,,,,,,,,,
CalCOFI,2105SH,003,,2105_003u,04-May-2021 23:28:23,04-May-2021 15:28:23,32.84812,-117.53085,093.3 030.0,093.3,030.0,468.000,471.855,,7.0440,,7.0442,,7.0441,34.3258,,34.3270,34.3272,,34.3291,34.3281,0.3194,,0.4001,0.4102,0.3242,,0.3952,0.4130,0.4116,13.890,17.0194,26.7910,14.100,20.1297,24.6437,25.7174,0.0410,,,,0.5991,,0.0000,,26.8878,,26.8889,,,,,,,,,,,6.9993,6.9995,0.8582,123.148,4.715,4.786,,,,,,,,,,,,
CalCOFI,2105SH,003,,2105_003u,04-May-2021 23:28:24,04-May-2021 15:28:24,32.84812,-117.53085,093.3 030.0,093.3,030.0,467.000,470.845,,7.0455,,7.0434,,7.0445,34.3257,,34.3269,34.3271,,34.3290,34.3280,0.3175,,0.3981,0.4083,0.3214,,0.3923,0.4101,0.4092,13.808,16.9337,26.7260,13.975,20.0412,24.5423,25.6342,0.0406,,,,0.5996,,0.0000,,26.8874,,26.8888,,,,,,,,,,,7.0008,6.9987,0.8582,123.164,4.687,4.743,,,,,,,,,,,,
CalCOFI,2105SH,003,,2105_003u,04-May-2021 23:28:25,04-May-2021 15:28:25,32.84812,-117.53084,093.3 030.0,093.3,030.0,466.000,469.836,,7.0449,,7.0416,,7.0433,34.3257,,34.3269,34.3275,,34.3294,34.3282,0.3204,,0.4012,0.4113,0.3263,,0.3974,0.4151,0.4132,13.933,17.0644,26.8251,14.190,20.1762,24.7167,25.7709,0.0396,,,,0.6002,,0.0000,,26.8875,,26.8894,,,,,,,,,,,7.0004,6.9971,0.8582,123.137,4.729,4.816,,,,,,,,,,,,
CalCOFI,2105SH,003,,2105_003u,04-May-2021 23:28:26,04-May-2021 15:28:26,32.84811,-117.53084,093.3 030.0,093.3,030.0,465.000,468.826,,7.0455,,7.0430,,7.0443,34.3257,,34.3269,34.3271,,34.3290,34.3280,0.3277,,0.4088,0.4188,0.3320,,0.4033,0.4210,0.4199,14.254,17.3999,27.0796,14.437,20.5229,24.9171,25.9984,0.0395,,,,0.6007,,0.0000,,26.8874,,26.8889,,,,,,,,,,,7.0011,6.9986,0.8582,123.133,4.838,4.900,,,,,,,,,,,,
CalCOFI,2105SH,003,,2105_003u,04-May-2021 23:28:27,04-May-2021 15:28:27,32.84811,-117.53084,093.3 030.0,093.3,030.0,464.000,467.817,,7.0454,,7.0512,,7.0483,34.3257,,34.3269,34.3264,,34.3283,34.3276,0.3233,,0.4042,0.4143,0.3256,,0.3967,0.4144,0.4144,14.060,17.1971,26.9258,14.160,20.3133,24.6924,25.8091,0.0405,,,,0.6011,,0.0000,,26.8874,,26.8872,,,,,,,,,,,7.0011,7.0068,0.8582,123.116,4.772,4.807,,,,,,,,,,,,
CalCOFI,2105SH,003,,2105_003u,04-May-2021 23:28:28,04-May-2021 15:28:28,32.84812,-117.53084,093.3 030.0,093.3,030.0,463.000,466.808,,7.0470,,7.0522,,7.0496,34.3253,,34.3265,34.3261,,34.3280,34.3273,0.3221,,0.4030,0.4130,0.3253,,0.3963,0.4141,0.4136,14.007,17.1417,26.8838,14.145,20.2561,24.6802,25.7820,0.0405,,,,0.6016,,0.0000,,26.8869,,26.8868,,,,,,,,,,,7.0027,7.0079,0.8582,123.154,4.755,4.802,,,,,,,,,,,,
CalCOFI,2105SH,003,,2105_003u,04-May-2021 23:28:29,04-May-2021 15:28:29,32.84812,-117.53084,093.3 030.0,093.3,030.0,462.000,465.798,,7.0519,,7.0514,,7.0517,34.3243,,34.3255,34.3268,,34.3287,34.3271,0.3220,,0.4028,0.4129,0.3282,,0.3993,0.4171,0.4150,14.004,17.1386,26.8814,14.274,20.2529,24.7849,25.8332,0.0396,,,,0.6019,,0.0000,,26.8854,,26.8874,,,,,,,,,,,7.0078,7.0073,0.8582,123.279,4.754,4.846,,,,,,,,,,,,